sat.trackr.live / text

‹ back to catalog

A-SEANSAT-PG1

NORAD 57197 · 2023-091AH

PAYLOAD ACTIVE UNKNOWN

§ Identity

Operator
Country
MALA
Launch date
2023-06-27
Launch site
VOSTO
Launch vehicle
Mass (kg)
RCS (m²)

External: N2YO · Heavens-Above · Gunter

§ Orbital elements

Epoch: 2026-05-25T03:39:47.537856Z

Period
93.75 min
Inclination
97.5091°
Eccentricity
0.0008425
Mean motion
15.36032695 rev/d
Perigee alt
452.1 km
Apogee alt
463.6 km
Semi-major
6,836.0 km
B*
4.9081e-4
RAAN
214.2570°
Arg perigee
152.9773°
Mean anomaly
207.1911°
Rev number
16,117

§ Raw data

A-SEANSAT-PG11 57197U 23091AH  26145.15263354  .00017176  00000+0  49081-3 0  99972 57197  97.5091 214.2570 0008425 152.9773 207.1911 15.36032695161173

JSON: /api/v1/satellites/57197 · /tle

For live sub-satellite position, see the globe view (requires WebGL).

§ Visibility from observer

Set your observer location to see the next 7 days of passes ≥ 10°. The values pass through the URL so the page stays shareable.

No JS? Fill the form by hand. The geolocation button needs JavaScript.

§ Radio — SatNOGS DB

ModeDescriptionDownlinkUplink
GMSK USP Mode U - GMSK 2k4 USP FEC 401.523 MHz
GMSK USP Mode U - GMSK 2k4 USP FEC 401.634 MHz

2 transmitters · refreshed weekly from db.satnogs.org